Location: Saint-Palais-sur-Mer
(45.6429°N, 1.0859°W)
Time: 21:29:53
(UTC+02:00)

CUBEBUG 2 - Pass Details

Date: 01 May 2024
Orbit: 570 x 669 km, 97.8° (Epoch: 19 May)

Event Time Altitude Azimuth Distance (km) Brightness Sun altitude
Rises 02:55:59 0° 34° (NE) 2,823 ? -27.9°
Reaches altitude 10° 02:59:30 10° 67° (ENE) 1,937 ? -27.8°
Maximum altitude 03:01:08 12° 89° (E) 1,817 ? -27.7°
Enters shadow 03:01:28 12° 95° (E) 1,825 ? -27.7°
